Regional Weather Roundup
Issued by NWS Jackson, KY

Home | Current Version | Previous Version | Text Only | Print | Product List | Glossary Off
Versions: 1 2 3 4 5 6 7 8 9 10 11 12 13 14 15 16 17 18 19 20 21 22 23 24 25 26 27 28 29 30 31 32 33 34 35 36 37 38 39 40 41 42 43 44 45 46 47 48 49 50

000
ASUS43 KJKL 030010
RWRJKL

EAST KENTUCKY HOURLY WEATHER ROUNDUP
NATIONAL WEATHER SERVICE JACKSON KY
800 PM EDT TUE JUN 02 2015

NOTE: "FAIR" INDICATES FEW OR NO CLOUDS BELOW 12,000 FEET WITH
NO SIGNIFICANT WEATHER AND/OR OBSTRUCTIONS TO VISIBILITY.

* THESE REPORTS ARE NOT UNDER NWS QUALITY CONTROL AND MAY NOT
  REPORT WEATHER SUCH AS PRECIPITATION AND FOG.

KYZ079-080-083-085-087-088-110-112-115-119-120-030100
...EASTERN KENTUCKY...

CITY           SKY/WX    TMP DP  RH WIND       PRES   REMARKS
JACKSON        CLOUDY    59  55  87 CALM      30.06R
6HR MIN TEMP:  59; 6HR MAX TEMP:  61;

LONDON         CLOUDY    62  53  72 NE9       30.05R
6HR MIN TEMP:  62; 6HR MAX TEMP:  68;

SOMERSET*      CLOUDY    61  54  77 NE6       30.06R
MONTICELLO*    CLOUDY    64  58  81 NE7       30.07R
6HR MIN TEMP:  64; 6HR MAX TEMP:  69;

MIDDLESBORO*   MOCLDY    67  61  79 N6        30.02S
6HR MIN TEMP:  67; 6HR MAX TEMP:  73;

HARLAN APT*    CLOUDY    63  59  88 CALM      30.04R
HAZARD APT*    CLOUDY    61  59  94 CALM      30.05S
BLACK MTN*       N/A     55  55 100 E1          N/A
PIKEVILLE APT* CLOUDY    57  55  94 N6        30.06S FOG
BIG SANDY*     CLOUDY    58  57  95 NE6       30.06S
6HR MIN TEMP:  58; 6HR MAX TEMP:  63;

MOREHEAD APT*  CLOUDY    59  54  82 NE5       30.09S
$$

KYZ035-036-041-042-044-050-067-078-099-030100
...CENTRAL KENTUCKY...

CITY           SKY/WX    TMP DP  RH WIND       PRES   REMARKS
MT STERLING*   CLOUDY    59  54  82 NE3       30.08S
FLEMING/MASON* CLOUDY    59  54  82 E3        30.10R
DANVILLE*      CLOUDY    57  54  88 NE5       30.09R
RICHMOND*      CLOUDY    59  54  82 N6        30.06S
LEXINGTON      CLOUDY    59  52  77 NE9       30.09R
6HR MIN TEMP:  58; 6HR MAX TEMP:  60;

FRANKFORT      CLOUDY    60  52  74 NE5       30.08R
6HR MIN TEMP:  59; 6HR MAX TEMP:  62;

$$

KYZ091>093-OHZ055-061-077-WVZ005-015-034-035-042-030100
...SOUTHERN OHIO/WEST VIRGINIA...

CITY           SKY/WX    TMP DP  RH WIND       PRES   REMARKS
COVINGTON      CLOUDY    61  52  72 E7        30.09R
COLUMBUS       PTCLDY    62  53  72 E9        30.09R
DAYTON         MOCLDY    65  54  67 E5        30.10R
WILMINGTON     MOCLDY    62  51  67 E6        30.08R
HUNTINGTON     CLOUDY    58  55  90 NE5       30.07R
CHARLESTON     CLOUDY    59  56  89 NE3       30.07S
PINEVILLE*     CLOUDY    64  62  91 MISG      30.08F
BECKLEY        CLOUDY    59  56  89 N6        30.07S
BLUEFIELD      CLOUDY    64  59  83 CALM      30.06F
$$

VAZ002-007-008-TNZ017-027-036-066-071-030100
...SOUTHWEST VIRGINIA/EAST TENNESSEE...

CITY           SKY/WX    TMP DP  RH WIND       PRES   REMARKS
WISE*          FOG       59  59 100 NE3       30.08R VSB 3/4
JONESVILLE*    CLOUDY    68  63  83 NW3       30.03S
ABINGDON*      MOCLDY    64  62  92 CALM      30.05R
BRISTOL        MOCLDY    65  59  81 CALM      30.02R
KNOXVILLE      LGT RAIN  67  63  87 SE7       29.98S
OAK RIDGE      MOCLDY    74  60  61 VRB3      29.99R
CROSSVILLE     CLOUDY    68  59  73 N6        30.03S
NASHVILLE      CLOUDY    66  60  81 N7        30.04S
$$

...KEY TO REMARKS...
VSB - VISIBILITY IN MILES
WCI - WIND CHILL INDEX
HX  - HEAT INDEX

$$



USA.gov is the U.S. government's official web portal to all federal, state and local government web resources and services.